Home   Weather   Neuburg an der Donau   Past weeks

Flag for Germany Past Weather in Neuburg an der Donau, Bavaria, Germany — Yesterday and Last 2 Weeks

Now
46 °F

Fog.


Feels Like: 46 °F
Forecast: 47 / 67 °F
Wind: 1 mph from Northeast

Location: Neuburg / Donau

Current Time: Sep 25, 2016 at 4:11:13 AM

Latest Report: Sep 25, 2016 at 3:20 AM


Visibility: 1 mi

Pressure: 30.18 "Hg

Humidity: 100%

Dew Point: 46 °F

Location of Neuburg an der DonauLocation

Past Weather in Neuburg an der Donau — Graph

°F

Neuburg an der Donau Temperature Yesterday

Maximum temperature yesterday: 68 °F (at 3:20 PM)
Minimum temperature yesterday: 41 °F (at 6:20 AM)
Average temperature yesterday: 53 °F

High & Low Weather Summary for the Past Weeks

 TemperatureHumidityPressure
High86 °F (Sep 12, 5:00 PM)100% (Sep 10, 6:20 AM)30.36 "Hg (Sep 10, 6:20 AM)
Low37 °F (Sep 22, 4:20 AM)33% (Sep 15, 3:20 PM)29.86 "Hg (Sep 15, 5:20 AM)
Average60 °F79%30.05 "Hg
* Reported Sep 10 2:20 AM — Sep 25 2:20 AM, Neuburg an der Donau, Weather by CustomWeather, © 2016

Note: Actual official high and low records may vary slightly from our data, if they occured in-between our weather recording intervals... More about our weather records

Advertising

Neuburg an der Donau Weather History for the Previous 24 Hours

Scroll right to see more
 ConditionsComfort  
Time TempWeatherWind HumidityBarometerVisibility
2:20 AM
Sun, Sep 25
46 °FFog.2 mph100%30.21 "HgN/A
1:20 AM46 °FFog.2 mph100%30.21 "HgN/A
12:20 AM50 °FFog.1 mph94%30.21 "HgN/A
11:20 PM
Sat, Sep 24
50 °FPassing clouds.2 mph94%30.21 "HgN/A
10:20 PM52 °FPassing clouds.2 mph94%30.21 "HgN/A
9:20 PM54 °FPassing clouds.1 mph88%30.24 "HgN/A
8:20 PM59 °FPassing clouds.5 mph72%30.24 "HgN/A
7:20 PM63 °FPassing clouds.5 mph64%30.24 "HgN/A
6:20 PM66 °FPassing clouds.3 mph56%30.24 "HgN/A
5:20 PM68 °FPassing clouds.6 mph49%30.24 "HgN/A
4:20 PM68 °FPassing clouds.3 mph49%30.27 "HgN/A
3:20 PM68 °FPassing clouds.3 mph53%30.27 "HgN/A
2:20 PM66 °FPassing clouds.7 mph56%30.30 "HgN/A
1:20 PM64 °FPassing clouds.6 mph64%30.33 "HgN/A
12:20 PM59 °FPassing clouds.3 mph82%30.33 "Hg4 mi
12:03 PM57 °FFog.2 mph88%30.33 "Hg2 mi
11:20 AM52 °FFog.2 mph100%30.33 "Hg1 mi
10:20 AM48 °FFog.2 mph100%30.36 "Hg0 mi
9:20 AM48 °FFog.2 mph94%30.36 "Hg0 mi
8:20 AM45 °FFog.1 mph100%30.33 "Hg0 mi
7:20 AM41 °FFog.1 mph100%30.33 "Hg0 mi
6:20 AM41 °FFog.No wind100%30.33 "Hg0 mi
5:20 AM45 °FFog.No wind100%30.33 "Hg0 mi
4:20 AM45 °FFog.1 mph100%30.33 "Hg0 mi
Weather by CustomWeather, © 2016

See weather overviewHow to use our weather pages